Weather observations for the past three days for
Chicago/Waukegan Regional Airport
Imperial (Metric)
Date Time (cdt) Wind (mph) Vis. (mi.) Weather Sky Cond. Temperature (ºF) Relative Humidity Wind Chill (°F) Heat Index (°F) Pressure Precipitation (in)
Air Dwpt 6 hour altimeter (in) sea level (mb) 1 hr 3 hr 6 hr
Max. Min.
16 15:51 SW 21 G 28 10.00 Fair and Breezy CLR 93 64.9 40% 95 29.8 1007.6
16 14:51 SW 20 G 29 10.00 Partly Cloudy SCT060 93 66.9 42% 97 29.81 1008.0
16 13:51 S 20 G 33 10.00 Fair CLR 91 66.9 45% 94 29.82 1008.5
16 12:51 SE 9 10.00 Fair CLR 84.9 64.9 84.9 70 51% 87 29.85 1009.6
16 11:51 S 10 10.00 A Few Clouds FEW055 82.9 63 51% 84 29.88 1010.3
16 10:51 S 13 G 24 10.00 Partly Cloudy SCT039 SCT100 82.9 62.1 49% 84 29.89 1010.8
16 09:51 S 15 G 26 10.00 Partly Cloudy FEW065 SCT100 81 57 44% 81 29.9 1011.0
16 08:51 S 13 G 28 10.00 A Few Clouds FEW060 78.1 54 43% 79 29.91 1011.6
16 07:51 S 16 G 23 10.00 Fair CLR 75 52 45% 78 29.92 1012.0
16 06:51 S 10 10.00 Fair CLR 70 55 70 64.9 59% 29.92 1012.2
16 05:51 SE 7 10.00 Fair CLR 66 57.9 75% 29.94 1013.0
16 04:51 S 9 G 22 10.00 Fair CLR 66 57 73% 29.94 1013.0
16 03:51 S 15 G 26 10.00 Fair CLR 66.9 57 71% 29.94 1012.9
16 02:51 SE 10 10.00 Fair CLR 66.9 57 71% 29.96 1013.8
16 01:51 S 9 10.00 Fair CLR 69.1 55.9 63% 29.97 1014.0
16 00:51 SE 8 10.00 A Few Clouds FEW110 68 57 75.9 68 68% 29.98 1014.2
15 23:51 SE 6 10.00 Fair CLR 70 55.9 61% 29.99 1014.6
15 22:51 S 12 10.00 Fair CLR 72 55.9 57% 29.98 1014.4
15 21:51 S 9 10.00 Fair CLR 73 55 53% 29.98 1014.3
15 20:51 SE 9 10.00 Fair CLR 73 55.9 55% 29.98 1014.3
15 19:51 S 13 G 24 10.00 Fair CLR 75 55 50% 78 29.97 1014.0
15 18:51 SE 14 G 28 10.00 Fair CLR 75 55 75.9 73 50% 78 29.94 1013.0
15 17:51 SE 9 10.00 Fair CLR 73.9 57 56% 30.02 1015.7
15 16:51 SE 12 10.00 Fair CLR 75 57 54% 78 30.05 1016.7
15 15:51 SE 9 10.00 Fair CLR 75.9 57 52% 78 30.05 1016.9
15 14:51 SE 9 10.00 Fair CLR 73 55.9 55% 30.07 1017.7
15 13:51 SE 15 G 21 10.00 Fair CLR 73 55 53% 30.09 1018.1
15 12:51 SE 12 10.00 Fair CLR 73.9 55.9 73.9 64.9 54% 30.1 1018.7
15 11:51 SE 10 10.00 Fair CLR 72 57 59% 30.11 1018.8
15 10:51 SE 13 10.00 Fair CLR 70 57.9 66% 30.11 1018.9
15 09:51 SE 12 10.00 Fair CLR 68 59 73% 30.11 1019.1
15 08:51 SE 9 10.00 Fair CLR 68 59 73% 30.12 1019.4
15 07:51 E 8 10.00 Fair CLR 66.9 59 76% 30.13 1019.6
15 06:51 E 6 10.00 Fair CLR 64.9 57 64.9 57.9 76% 30.12 1019.2
15 05:51 N 7 10.00 Fair CLR 60.1 53.1 78% 30.11 1018.8
15 04:51 NW 3 10.00 Fair CLR 59 52 78% 30.11 1018.8
15 03:51 NE 6 10.00 Fair CLR 60.1 51.1 72% 30.08 1017.7
15 02:51 N 6 10.00 Fair CLR 59 50 72% 30.07 1017.7
15 01:51 N 6 10.00 Fair CLR 60.1 50 70% 30.08 1017.9
15 00:51 N 6 10.00 Fair CLR 59 48 68 57 67% 30.09 1018.1
14 23:51 N 6 10.00 Fair CLR 60.1 46 60% 30.09 1018.3
14 22:51 N 3 10.00 Fair CLR 57 45 64% 30.08 1018.0
14 21:51 N 5 10.00 Fair CLR 62.1 44.1 52% 30.08 1017.5
14 20:51 N 8 10.00 Fair CLR 64 42.1 45% 30.06 1016.9
14 19:51 N 9 G 22 10.00 Fair CLR 66 42.1 42% 30.06 1017.2
14 18:51 N 12 G 22 10.00 Fair CLR 68 46 75 68 45% 30.05 1016.9
14 17:51 NE 13 G 24 10.00 Fair CLR 71.1 48.9 46% 30.04 1016.5
14 16:51 N 16 10.00 Fair CLR 72 52 50% 30.04 1016.3
14 15:51 NE 12 10.00 Fair CLR 73.9 53.1 48% 30.02 1015.8
14 14:51 NE 13 10.00 Fair CLR 73.9 53.1 48% 30.02 1015.4
14 13:51 NE 10 G 22 10.00 Fair CLR 73.9 53.1 48% 30.02 1015.5
14 12:51 NE 10 G 20 10.00 Fair CLR 72 57 78.1 68 59% 30.01 1015.5
14 11:51 NE 13 G 20 10.00 Fair CLR 72 59 64% 29.99 1014.8
14 10:51 NE 9 10.00 Fair CLR 75 60.1 60% 77 29.99 1014.5
14 09:51 N 8 10.00 Fair CLR 77 57.9 52% 79 29.98 1013.9
14 08:51 Calm 10.00 Fair CLR 75 57.9 55% 78 29.96 1013.3
14 07:51 N 3 10.00 Fair CLR 71.1 57 61% 29.96 1013.0
14 06:51 NW 6 10.00 Fair CLR 68 55.9 71.1 64.9 65% 29.94 1012.4
14 05:51 NW 6 10.00 Fair CLR 64.9 55 70% 29.93 1012.3
14 04:51 NW 7 10.00 Fair CLR 66.9 55 66% 29.92 1011.9
14 03:51 N 7 10.00 Fair CLR 68 55.9 65% 29.9 1011.3
14 02:51 NW 7 10.00 Fair CLR 69.1 57.9 68% 29.89 1010.9
14 01:51 NW 6 10.00 Fair CLR 71.1 59 66% 29.88 1010.3
14 00:51 NW 3 10.00 Fair CLR 69.1 59 84.9 66 70% 29.87 1010.2
13 23:51 Calm 10.00 Fair CLR 66.9 61 81% 29.87 1010.3
13 22:51 Calm 10.00 Fair CLR 71.1 61 71% 29.87 1010.2
13 21:51 Calm 10.00 Fair CLR 72 61 68% 29.87 1010.1
13 20:51 NW 5 10.00 Fair CLR 78.1 57.9 50% 79 29.84 1009.2
13 19:51 W 3 10.00 Fair CLR 82.9 57 41% 82 29.82 1008.5
13 18:51 W 5 10.00 Fair CLR 84.9 57.9 90 84.9 40% 84 29.8 1007.7
13 17:51 SW 8 10.00 Fair CLR 87.1 57.9 37% 86 29.8 1007.7
13 16:51 NW 8 10.00 Fair CLR 86 57.9 39% 85 29.82 1008.4
Date Time (cdt) Wind (mph) Vis. (mi.) Weather Sky Cond. Air Dwpt Max. Min. Relative Humidity Wind Chill (°F) Heat Index (°F) altimeter (in) sea level (mb) 1 hr 3 hr 6 hr
6 hour
Temperature (ºF) Pressure Precipitation (in)